Location: Pedholt
(56.0260°N, 10.2097°E)
Time: 02:10:23
(UTC+00:00)

SR - Pass Details

Date: 30 July 2021
Orbit: 581 x 873 km, 66.7° (Epoch: 27 September)

Event Time Altitude Azimuth Distance (km) Brightness Sun altitude
Rises 14:00:58 0° 315° (NW) 3,198 ? 42.4°
Reaches altitude 10° 14:03:28 10° 313° (NW) 2,222 ? 42.1°
Maximum altitude 14:08:26 63° 233° (SW) 758 ? 41.6°
Drops below altitude 10° 14:12:58 10° 153° (SSE) 2,030 ? 41.0°
Sets 14:15:09 0° 150° (SSE) 2,898 ? 40.8°
